星链-4395 (STARLINK-4395 )

导读

STARLINK-4395是美国SpaceX公司星链星座中的一颗卫星,于2022年7月22日发射入轨。作为星链(Starlink)卫星互联网项目的组成部分,它运行在近地轨道,属于第一代组网卫星,配备氪离子推进系统与相控阵通信天线,主要为全球缺乏传统基础设施的偏远地区提供高速低延迟宽带互联网接入服务,助力实现全球网络覆盖。

Basic Information
目录编号:
53199
目录名称:
STARLINK-4395
国际标识:
2022-084L
轨道中心:
EARTH
卫星名称:
星链-4395
卫星全名:
星链-4395 (STARLINK-4395 )
卫星状态:
在轨 (已飞行1426 天)
发射日期:
2022-07-22 UTC
国别 :
美国 (US)
星等 :
--
Orbit Information
数据来源 国际轨道数据 AOE轨道数据
星历时间 2026-06-17T09:57:17+0800
9小时前
查看轨道信息
2026-06-13T01:00:00+0800
4天前
查看轨道信息
半长轴 6927.636km 6927.621km
偏心率 0.0001832 0.0002325
轨道倾角 97.350° 97.369°
近地点辐角 97.616° 109.489°
升交点赤经 228.201° 224.032°
平近点角 262.528° 321.805°
近地点 548.229km 547.873km
远地点 550.769km 551.095km
周期 95.640分钟 95.639分钟
每日圈数 15.05654 15.056591
Detailed Information
固有亮度:
5
最大亮度:
2.5
卫星平台:
Starlink v1.5
覆盖范围:
全球
运营商:
太空探索技术公司
运营商所在国:
美国
制造商(研发单位):
太空探索技术公司
制造商所在国:
美国
使用方式:
暂无
Satellite Introduction
星链(Starlink)计划是由太空探索技术公司(SpaceX)提出的一个巨型低轨卫星互联网星座项目,计划在2019年至2024年间在太空搭建由约1.2万颗卫星组成的“星链”网络,其中1584颗将部署在地球上空550千米处的近地轨道,并从2020年开始工作。该卫星仍在工作。
2D Orbit Map
3D Orbit Map
Orbit Altitude Analysis Chart
Orbit Inclination Analysis Chart
Orbit Comprehensive Analysis Chart
View Comprehensive Chart